Somerville, NJ

2:09 PM EDT on October 20, 2017 (GMT -0400)
Somerset

Weather History for KSMQ - March, 2014

Change the Weather History Date:

Tuesday, March 4, 2014

  Actual Average Record
Temperature  
Mean Temperature 16 °F -  
Max Temperature 27 °F 44 °F 71 °F (1991)
Min Temperature 6 °F 27 °F 3 °F (1943)
Degree Days  
Heating Degree Days 48    
Moisture  
Dew Point 2 °F    
Average Humidity 50    
Maximum Humidity 80    
Minimum Humidity 31    
Precipitation  
Precipitation 0.00 in - - ()
Sea Level Pressure  
Sea Level Pressure 30.34 in    
Wind  
Wind Speed 3 mph (NW)    
Max Wind Speed 7 mph    
Max Gust Speed -    
Visibility 10 miles    
Events      
Averages and records for this station are not official NWS values.
T = Trace of Precipitation, MM = Missing Value Source: NWS Daily Summary

Daily Weather History Graph

Daily Weather History Graph

Search for Another Location

Airport or City:

Trip Planner

Search our weather history database for the weather conditions in past years. The results will help you decide how hot, cold, wet, or windy it might be!

Date:

Astronomy

Mar. 04, 2014 Rise Set
Actual Time 6:27 AM EST 5:53 PM EST
Civil Twilight 6:00 AM EST 6:20 PM EST
Nautical Twilight 5:29 AM EST 6:52 PM EST
Astronomical Twilight 4:57 AM EST 7:24 PM EST
Moon 8:11 AM EST (3/4) 9:59 PM EST (3/4)
Length of Visible Light 12h 20m
Length of Day
11h 25m
Waxing Crescent, 14% of the Moon is Illuminated
Mar 4
Waxing Crescent
Mar 8
First Quarter
Mar 16
Full
Mar 23
Last Quarter
Mar 30
New

Hourly Weather History & Observations

Time (EST) Temp. Windchill Dew Point Humidity Pressure Visibility Wind Dir Wind Speed Gust Speed Precip Events Conditions
12:53 AM 12.9 °F 3.8 °F -4.0 °F 47% 30.35 in 10.0 mi NNW 5.8 mph - N/A   Clear
1:53 AM 10.9 °F 0.2 °F -2.9 °F 54% 30.36 in 10.0 mi NNW 6.9 mph - N/A   Clear
2:53 AM 10.9 °F 2.9 °F -4.0 °F 51% 30.35 in 10.0 mi NNW 4.6 mph - N/A   Clear
3:53 AM 10.0 °F 3.6 °F -2.9 °F 56% 30.34 in 10.0 mi NNW 3.5 mph - N/A   Clear
4:53 AM 6.1 °F - -2.0 °F 69% 30.37 in 10.0 mi Calm Calm - N/A   Clear
5:53 AM 7.0 °F 0.1 °F -0.9 °F 70% 30.38 in 10.0 mi NNW 3.5 mph - N/A   Clear
6:53 AM 6.1 °F - 1.0 °F 80% 30.40 in 10.0 mi Calm Calm - N/A   Clear
7:53 AM 10.9 °F - -0.0 °F 61% 30.43 in 10.0 mi Calm Calm - N/A   Clear
8:53 AM 14.0 °F 6.5 °F -2.0 °F 49% 30.43 in 10.0 mi NNW 4.6 mph - N/A   Clear
9:53 AM 16.0 °F 10.4 °F -0.0 °F 49% 30.42 in 10.0 mi NW 3.5 mph - N/A   Clear
10:53 AM 19.0 °F - -0.0 °F 43% 30.40 in - Calm Calm - N/A   Clear
11:53 AM 21.0 °F - -0.0 °F 40% 30.38 in - Calm Calm - N/A   Clear
12:53 PM 23.0 °F 18.4 °F -0.9 °F 35% 30.35 in - SSE 3.5 mph - N/A   Clear
1:53 PM 25.0 °F 20.7 °F -0.9 °F 33% 30.32 in - SE 3.5 mph - N/A   Clear
2:53 PM 27.0 °F 23.0 °F -0.0 °F 31% 30.30 in 10.0 mi Variable 3.5 mph - N/A   Clear
3:53 PM 27.0 °F 21.6 °F 1.0 °F 33% 30.29 in 10.0 mi SSW 4.6 mph - N/A   Clear
4:53 PM 27.0 °F 23.0 °F 1.0 °F 33% 30.27 in 10.0 mi South 3.5 mph - N/A   Clear
5:53 PM 27.0 °F 21.6 °F 3.0 °F 36% 30.28 in 10.0 mi South 4.6 mph - N/A   Clear
6:53 PM 27.0 °F - 5.0 °F 39% 30.29 in 10.0 mi Calm Calm - N/A   Clear
7:53 PM 26.1 °F - 10.0 °F 51% 30.29 in 10.0 mi Calm Calm - N/A   Partly Cloudy
8:53 PM 24.1 °F - 10.9 °F 57% 30.27 in 10.0 mi Calm Calm - N/A   Clear
9:53 PM 25.0 °F 20.7 °F 12.0 °F 58% 30.28 in 10.0 mi NW 3.5 mph - N/A   Clear
10:53 PM 24.1 °F - 12.9 °F 62% 30.25 in 10.0 mi Calm Calm - N/A   Clear
11:53 PM 23.0 °F - 14.0 °F 68% 30.25 in 10.0 mi Calm Calm - N/A   Overcast